Regional Weather Roundup
Issued by NWS

Home | Current Version | Previous Version | Graphics & Text | Print | Product List | Glossary On
Versions: 1 2 3 4 5 6 7 8 9 10 11 12 13 14 15 16 17 18 19 20 21 22 23 24 25 26 27
000
ASUS45 KPSR 171410
RWRAZ

ARIZONA HOURLY REGIONAL WEATHER ROUNDUP
NATIONAL WEATHER SERVICE PHOENIX AZ
700 AM MST FRI NOV 17 2017

NOTE: FAIR INDICATES FEW OR NO CLOUDS BELOW 12,000 FEET WITH NO
SIGNIFICANT WEATHER AND/OR OBSTRUCTIONS TO VISIBILITY.

AZZ001>003-036-171500-
NORTHWEST ARIZONA

CITY           SKY/WX    TMP DP  RH WIND       PRES   REMARKS
BULLHEAD CITY  CLOUDY    66  34  30 SE7       29.89S
KINGMAN        CLOUDY    65  35  33 SW17      29.99R
$$

AZZ004>008-015-016-018-171500-
NORTH CENTRAL ARIZONA

CITY           SKY/WX    TMP DP  RH WIND       PRES   REMARKS
GRAND CANYON   CLOUDY    48  31  51 S8        30.08S
WILLIAMS       CLOUDY    50  30  46 SW15G23   30.11R
PRESCOTT       MOCLDY    56  34  43 SE9       30.08S
FLAGSTAFF      CLOUDY    47  27  45 SW14      30.13S
PAYSON         CLOUDY    52  28  40 CALM      30.13R
PAGE           MOCLDY    64  35  34 SW17G25   29.88R
$$

AZZ009>014-017-171500-
NORTHEAST ARIZONA

CITY           SKY/WX    TMP DP  RH WIND       PRES   REMARKS
WINSLOW        PTCLDY    46  31  55 CALM      30.06R
SAINT JOHNS    MOCLDY    52  23  32 VRB3      30.10S
WINDOW ROCK    MOCLDY    47  28  47 SW7       30.11S
SHOW LOW       PTCLDY    50  27  40 S9        30.16S
$$

AZZ540-542>544-546-548-171500-
GREATER PHOENIX AREA

CITY           SKY/WX    TMP DP  RH WIND       PRES   REMARKS
PHOENIX        CLOUDY    63  33  32 E8        29.94S
BUCKEYE        CLOUDY    59  30  33 SE5       29.95R
GLENDALE       MOCLDY    61  34  36 CALM      29.96S
LUKE AFB       MOCLDY    61  35  37 CALM      29.94S
DEER VALLEY    MOCLDY    66  27  23 E8        29.95S
SCOTTSDALE     CLOUDY    63  35  35 CALM      29.98R
MESA-FALCON    MOCLDY    64  28  25 N5        29.97S
MESA-GATEWAY   MOCLDY    57  28  33 E6        29.98R
CHANDLER       CLEAR     59  32  36 CALM      29.96S
$$

AZZ539-553-171500-
SOUTHWEST MARICOPA COUNTY AND PINAL COUNTY

CITY           SKY/WX    TMP DP  RH WIND       PRES   REMARKS
CASA GRANDE    NOT AVBL
GILA BEND      MOCLDY    64  28  25 CALM      29.94
$$

AZZ503-504-507>509-171500-
SOUTHEAST ARIZONA

CITY           SKY/WX    TMP DP  RH WIND       PRES   REMARKS
TUCSON         PTCLDY    53  23  31 SE5       30.06R
DAVIS-MONTHAN  PTCLDY    54  22  28 S5        30.04R
RYAN FIELD     CLEAR    N/A N/A N/A CALM      30.05R
NOGALES        CLEAR     47  22  37 NE3       30.12R
SIERRA VISTA   CLEAR     55  17  22 CALM      30.14R
DOUGLAS        CLEAR     46  18  32 SE8       30.12R
SAFFORD        PTCLDY    43  17  35 N3        30.06R
$$

AZZ532-171500-
SOUTHWEST ARIZONA

CITY           SKY/WX    TMP DP  RH WIND       PRES   REMARKS
YUMA           MOCLDY    64  45  49 CALM      29.93R
$$

CAZ041-043-047-048-061-525>527-560>570-171500-
SOUTHERN CALIFORNIA

CITY           SKY/WX    TMP DP  RH WIND       PRES   REMARKS
DOWNTOWN L.A.  CLOUDY    63  59  87 CALM      30.00S
L.A. AIRPORT   CLOUDY    65  59  81 CALM      30.01R
SAN DIEGO      CLOUDY    65  56  72 CALM      30.02R
BURBANK        CLOUDY    62  56  80 NW6       30.01S
ONTARIO        CLOUDY    63  50  62 CALM      30.02S
RIVERSIDE      CLOUDY    62  51  67 NE3       30.03R
PALM SPRINGS   MOCLDY    71  49  45 NW9G25    29.93F
EL CENTRO NAS  MOCLDY    72  42  34 W13       29.94R
IMPERIAL       MOCLDY    71  44  37 W13       29.91R
BLYTHE         CLOUDY    69  43  38 SW5       29.90R
NEEDLES        CLOUDY    70  35  27 SW6       29.90R
$$

NVZ020-UTZ003-171500-
SOUTHERN NEVADA-UTAH

CITY           SKY/WX    TMP DP  RH WIND       PRES   REMARKS
LAS VEGAS      MOCLDY    67  40  37 SW12G24   29.84S
SALT LAKE CITY RAIN      43  40  89 N15       29.81R FOG
$$

NMZ009-TXZ055-171500-
NEW MEXICO-WEST TEXAS

CITY           SKY/WX    TMP DP  RH WIND       PRES   REMARKS
ALBUQUERQUE    CLOUDY    48  19  31 SE8       30.08R
EL PASO        MOCLDY    55  31  39 SW5       30.07R
$$


........................KEY........................
SKY/WX - SKY CONDITION/WEATHER
TMP    - TEMPERATURE IN FAHRENHEIT
DP     - DEW POINT IN FAHRENHEIT
RH     - RELATIVE HUMIDITY IN PERCENT
WIND   - DIRECTION AND SPEED IN MILES PER HOUR (MPH)
VRB    - VARIABLE WIND DIRECTION
PRES   - MEAN SEA LEVEL PRESSURE IN INCHES OF MERCURY
         F - FALLING PRESSURE   R - RISING PRESSURE
         S - STEADY PRESSURE
VSB    - VISIBILITY IN MILES
HX     - HEAT INDEX IN FAHRENHEIT
WCI    - WIND CHILL INDEX IN FAHRENHEIT
TC     - TEMPERATURE IN CELSIUS WHICH IS ALSO KNOWN AS
         TEMPERATURE IN CENTIGRADE
AFB    - AIR FORCE BASE
         LUKE AFB IS LUKE AIR FORCE BASE
         DAVIS-MONTHAN IS DAVIS-MONTHAN AIR FORCE BASE
NAS    - NAVAL AIR STATION
         EL CENTRO NAS IS EL CENTRO NAVAL AIR STATION
N/A    - NOT AVAILABLE





USA.gov is the U.S. government's official web portal to all federal, state and local government web resources and services.